This is the latest recevied weather packets stored in our database for station/object YO8SDE-8. If no packets are shown the sender has not sent any weather packets the latest 10 day(s).
| Time | Temp. | Humidity | Pressure | Rain* | Wind** | Luminosity | Snow |
|---|---|---|---|---|---|---|---|
| 1777534267 | 13.33° C | 40% | 1015.7 hPa | 0 mm | - | - | - |
| 1777533967 | 13.33° C | 39% | 1015.8 hPa | 0 mm | - | - | - |
| 1777533667 | 13.33° C | 41% | 1015.8 hPa | 0 mm | - | - | - |
| 1777533367 | 12.78° C | 43% | 1015.8 hPa | 0 mm | - | - | - |
| 1777533067 | 12.22° C | 44% | 1015.8 hPa | 0 mm | - | - | - |
| 1777532767 | 11.67° C | 44% | 1015.7 hPa | 0 mm | - | - | - |
| 1777532467 | 11.67° C | 46% | 1015.8 hPa | 0 mm | - | - | - |
| 1777532167 | 11.11° C | 47% | 1015.8 hPa | 0 mm | - | - | - |
| 1777531867 | 10.56° C | 48% | 1015.7 hPa | 0 mm | - | - | - |
| 1777531567 | 10° C | 49% | 1015.7 hPa | 0 mm | - | - | - |
| 1777531267 | 9.44° C | 49% | 1015.7 hPa | 0 mm | - | - | - |
| 1777530967 | 9.44° C | 49% | 1015.8 hPa | 0 mm | - | - | - |
| 1777530667 | 9.44° C | 50% | 1015.7 hPa | 0 mm | - | - | - |
| 1777530367 | 8.89° C | 51% | 1015.7 hPa | 0 mm | - | - | - |
| 1777530067 | 8.33° C | 52% | 1015.7 hPa | 0 mm | - | - | - |
| 1777529767 | 8.33° C | 53% | 1015.7 hPa | 0 mm | - | - | - |
| 1777529467 | 8.33° C | 54% | 1015.5 hPa | 0 mm | - | - | - |
| 1777529167 | 8.33° C | 53% | 1015.6 hPa | 0 mm | - | - | - |
| 1777528867 | 7.78° C | 54% | 1015.5 hPa | 0 mm | - | - | - |
| 1777528567 | 7.78° C | 55% | 1015.6 hPa | 0 mm | - | - | - |
| 1777528267 | 7.78° C | 56% | 1015.6 hPa | 0 mm | - | - | - |
| 1777527967 | 7.22° C | 56% | 1015.6 hPa | 0 mm | - | - | - |
| 1777527667 | 7.22° C | 56% | 1015.5 hPa | 0 mm | - | - | - |
| 1777527367 | 7.22° C | 56% | 1015.6 hPa | 0 mm | - | - | - |
| 1777527067 | 7.22° C | 58% | 1015.7 hPa | 0 mm | - | - | - |
* Rain latest hour (hover to see other rain measurements)
** Current wind speed in m/s (hover to see current wind gust speed)